This demonstration page uses our WeatherBlox Daily Observations layout. Learn more.

41.55636, -103.73856

Hourly Observations for October 30, 2019

Temp ( °F °C ) Dew Point ( °F °C ) Humidity (%) Winds ( mph kmh ) Pressure ( in mb ) Visibility ( mi km ) Precip ( " mm )
12:58 am 00:58 Cloudy with Light Snow 11 -11.9 7 -13.9 85 85 N 7 11 30.51 1033 6 9.65604 0 0
1:58 am 01:58 Mostly Cloudy with Scattered Snow Showers 9 -12.6 6 -14.4 87 87 NW 3 6 30.56 1035 10 16.0934 0 0
2:58 am 02:58 Cloudy with Light Snow 9 -12.9 6 -14.4 89 89 NW 8 13 30.59 1036 5 8.0467 0 0
3:58 am 03:58 Cloudy with Light Snow 8 -13.1 6 -14.6 89 89 WNW 6 9 30.57 1035 8 12.87472 0 0
4:58 am 04:58 Cloudy with Light Snow 9 -12.9 6 -14.4 89 89 WNW 6 9 30.57 1035 7 11.26538 0 0
5:58 am 05:58 Cloudy with Light Snow 9 -12.9 6 -14.5 88 88 NW 9 15 30.57 1035 8 12.87472 0 0
6:58 am 06:58 Cloudy 8 -13.5 4 -15.8 83 83 NW 8 13 30.57 1035 10 16.0934 0 0
7:58 am 07:58 Partly Cloudy 5 -14.9 1 -17 84 84 NW 7 11 30.59 1036 10 16.0934 0 0
8:58 am 08:58 Cloudy 5 -15.1 1 -17.3 83 83 WSW 3 6 30.6 1036 10 16.0934 0 0
9:58 am 09:58 Cloudy 6 -14.4 1 -17.4 78 78 WNW 6 9 30.56 1035 10 16.0934 0 0
10:58 am 10:58 Cloudy 6 -14.5 0 -17.6 78 78 WNW 8 13 30.58 1035 10 16.0934 0 0
11:58 am 11:58 Mostly Cloudy 4 -15.5 -2 -19 75 75 WNW 7 11 30.56 1035 10 16.0934 0 0
12:58 pm 12:58 Mostly Cloudy 2 -16.8 -3 -19.5 80 80 Calm 30.57 1035 10 16.0934 0 0
1:58 pm 13:58 Cloudy 2 -16.5 -3 -19.5 78 78 Calm 30.59 1036 10 16.0934 0 0
2:58 pm 14:58 Mostly Cloudy 4 -15.3 -3 -19.3 72 72 W 7 11 30.6 1036 10 16.0934 0 0
3:58 pm 15:58 Sunny 8 -13.4 -2 -19.1 63 63 W 6 9 30.59 1036 10 16.0934 0 0
4:58 pm 16:58 Sunny 10 -12 -2 -18.9 57 57 WNW 8 13 30.57 1035 10 16.0934 0 0
5:58 pm 17:58 Sunny 13 -10.4 0 -18 54 54 NW 9 15 30.55 1035 10 16.0934 0 0
6:58 pm 18:58 Sunny 16 -8.9 -1 -18.2 47 47 WNW 10 17 30.53 1034 10 16.0934 0 0
7:58 pm 19:58 Sunny 18 -7.8 0 -17.6 46 46 WNW 12 19 30.5 1033 10 16.0934 0 0
8:58 pm 20:58 Sunny 20 -6.8 0 -17.6 42 42 WNW 12 19 30.48 1032 10 16.0934 0 0
9:58 pm 21:58 Sunny 20 -6.4 1 -17.2 42 42 WNW 13 20 30.45 1031 10 16.0934 0 0
10:58 pm 22:58 Sunny 20 -6.8 6 -14.4 55 55 WNW 12 19 30.47 1032 10 16.0934 0 0
11:58 pm 23:58 Mostly Cloudy 15 -9.3 6 -14.2 68 68 W 8 13 30.47 1032 10 16.0934 0 0

Powered by AerisWeather